Greenville, SC

2:34 AM EDT on April 30, 2017 (GMT -0400)
Donaldson Center

Weather History for KGYH - January, 2013

Change the Weather History Date:

Friday, January 18, 2013

  Actual Average (KGMU) Record (KGMU)
Temperature  
Mean Temperature 44 °F -  
Max Temperature 53 °F 49 °F 78 °F (2017)
Min Temperature 35 °F 32 °F 17 °F (2003)
Degree Days  
Heating Degree Days 21    
Moisture  
Dew Point 27 °F    
Average Humidity 59    
Maximum Humidity 87    
Minimum Humidity 30    
Precipitation  
Precipitation 0.00 in - - ()
Sea Level Pressure  
Sea Level Pressure 30.39 in    
Wind  
Wind Speed 4 mph (NE)    
Max Wind Speed 10 mph    
Max Gust Speed 17 mph    
Visibility 10 miles    
Events      
Averages and records for this station are not official NWS values.
T = Trace of Precipitation, MM = Missing Value Source: NWS Daily Summary

Daily Weather History Graph

Daily Weather History Graph

Search for Another Location

Airport or City:

Trip Planner

Search our weather history database for the weather conditions in past years. The results will help you decide how hot, cold, wet, or windy it might be!

Date:

Astronomy

Jan. 18, 2013 Rise Set
Actual Time 7:35 AM EST 5:44 PM EST
Civil Twilight 7:08 AM EST 6:12 PM EST
Nautical Twilight 6:37 AM EST 6:43 PM EST
Astronomical Twilight 6:07 AM EST 7:13 PM EST
Moon 11:33 AM EST (1/18) 12:15 AM EST (1/18)
Length of Visible Light 11h 03m
Length of Day
10h 09m
Waxing Crescent, 47% of the Moon is Illuminated
Jan 18
Waxing Crescent
Jan 18
First Quarter
Jan 26
Full
Feb 3
Last Quarter
Feb 10
New

Hourly Weather History & Observations

Time (EST) Temp. Windchill Dew Point Humidity Pressure Visibility Wind Dir Wind Speed Gust Speed Precip Events Conditions
12:15 AM 39.2 °F 37.0 °F 35.6 °F 87% 30.22 in 10.0 mi NNE 3.5 mph - N/A   Clear
12:35 AM 39.2 °F 35.9 °F 33.8 °F 81% 30.23 in 10.0 mi North 4.6 mph - N/A   Clear
12:55 AM 37.4 °F 33.8 °F 33.8 °F 87% 30.24 in 10.0 mi NNW 4.6 mph - N/A   Clear
1:15 AM 37.4 °F 30.8 °F 32.0 °F 81% 30.25 in 10.0 mi NNW 9.2 mph - N/A   Clear
1:35 AM 39.2 °F 33.6 °F 32.0 °F 75% 30.26 in 10.0 mi North 8.1 mph 17.3 mph N/A   Clear
1:55 AM 39.2 °F 35.0 °F 30.2 °F 70% 30.28 in 10.0 mi North 5.8 mph - N/A   Clear
2:15 AM 37.4 °F 33.8 °F 30.2 °F 75% 30.28 in 10.0 mi NW 4.6 mph - N/A   Clear
2:35 AM 37.4 °F 32.8 °F 30.2 °F 75% 30.29 in 10.0 mi NNW 5.8 mph - N/A   Clear
2:55 AM 37.4 °F 33.8 °F 28.4 °F 70% 30.29 in 10.0 mi North 4.6 mph - N/A   Clear
3:15 AM 37.4 °F 32.8 °F 28.4 °F 70% 30.30 in 10.0 mi NNE 5.8 mph - N/A   Clear
3:35 AM 35.6 °F - 28.4 °F 75% 30.30 in 10.0 mi Calm Calm - N/A   Clear
3:55 AM 35.6 °F - 28.4 °F 75% 30.30 in 10.0 mi Calm Calm - N/A   Clear
4:15 AM 37.4 °F - 28.4 °F 70% 30.30 in 10.0 mi Calm Calm - N/A   Clear
4:35 AM 35.6 °F 29.9 °F 26.6 °F 70% 30.30 in 10.0 mi North 6.9 mph - N/A   Clear
4:55 AM 37.4 °F 33.8 °F 26.6 °F 65% 30.31 in 10.0 mi North 4.6 mph - N/A   Clear
5:15 AM 35.6 °F 32.8 °F 26.6 °F 70% 30.31 in 10.0 mi NNE 3.5 mph - N/A   Clear
5:35 AM 35.6 °F - 26.6 °F 70% 30.31 in 10.0 mi Calm Calm - N/A   Clear
6:47 AM 37.4 °F 30.3 °F 23.0 °F 56% 30.34 in 10.0 mi NNW 10.4 mph 16.1 mph N/A   Clear
7:47 AM 37.4 °F 33.8 °F 19.4 °F 48% 30.37 in 10.0 mi NNE 4.6 mph - N/A   Clear
8:47 AM 41.0 °F 35.8 °F 15.8 °F 36% 30.41 in 10.0 mi East 8.1 mph - N/A   Clear
9:47 AM 42.8 °F 40.1 °F 19.4 °F 39% 30.45 in 10.0 mi NE 4.6 mph - N/A   Clear
11:47 AM 48.2 °F - 19.4 °F 32% 30.48 in 10.0 mi East 4.6 mph - N/A   Clear
12:47 PM 48.2 °F - 19.4 °F 32% 30.46 in 10.0 mi Calm Calm - N/A   Clear
1:47 PM 51.8 °F - 21.2 °F 30% 30.45 in 10.0 mi SE 3.5 mph - N/A   Clear
2:49 PM 53.6 °F - 23.0 °F 30% 30.44 in 10.0 mi South 4.6 mph - N/A   Clear
3:47 PM 53.6 °F - 23.0 °F 30% 30.44 in 10.0 mi Calm Calm - N/A   Clear
4:50 PM 51.8 °F - 24.8 °F 35% 30.45 in 10.0 mi Calm Calm - N/A   Clear
5:47 PM 48.2 °F - 23.0 °F 37% 30.46 in 10.0 mi ESE 4.6 mph - N/A   Clear
6:47 PM 46.4 °F 45.2 °F 24.8 °F 43% 30.47 in 10.0 mi SSE 3.5 mph - N/A   Clear
7:47 PM 44.6 °F - 26.6 °F 49% 30.48 in 10.0 mi Calm Calm - N/A   Clear
8:15 PM 42.8 °F - 28.4 °F 57% 30.48 in 10.0 mi Calm Calm - N/A   Clear
8:35 PM 42.8 °F 41.1 °F 26.6 °F 53% 30.48 in 10.0 mi SE 3.5 mph - N/A   Clear
8:47 PM 42.8 °F 41.1 °F 26.6 °F 53% 30.48 in 10.0 mi SE 3.5 mph - N/A   Clear
8:55 PM 42.8 °F - 28.4 °F 57% 30.48 in 10.0 mi Calm Calm - N/A   Clear
9:15 PM 41.0 °F - 28.4 °F 61% 30.48 in 10.0 mi Calm Calm - N/A   Clear
9:35 PM 41.0 °F - 28.4 °F 61% 30.48 in 10.0 mi Calm Calm - N/A   Clear
9:55 PM 42.8 °F - 28.4 °F 57% 30.48 in 10.0 mi Calm Calm - N/A   Clear
10:15 PM 41.0 °F - 28.4 °F 61% 30.48 in 10.0 mi Calm Calm - N/A   Clear
10:35 PM 41.0 °F - 28.4 °F 61% 30.48 in 10.0 mi Calm Calm - N/A   Clear
10:55 PM 41.0 °F - 28.4 °F 61% 30.48 in 10.0 mi Calm Calm - N/A   Clear
11:15 PM 41.0 °F 39.0 °F 26.6 °F 57% 30.48 in 10.0 mi East 3.5 mph - N/A   Clear
11:35 PM 37.4 °F 33.8 °F 28.4 °F 70% 30.48 in 10.0 mi ENE 4.6 mph - N/A   Clear
11:55 PM 37.4 °F 34.9 °F 26.6 °F 65% 30.47 in 10.0 mi ENE 3.5 mph - N/A   Clear